CAPE
0 0 0 0 0 0 53 73 50 112 38 24 2 0 0 38 47 77 167 144 215 278 317 313 351 390 437 540 568 417 704 1177 1274 1070 633 781 731 1076 819 802 388 1146 1006 1937
0 0 23 0 0 0 1 62 159 155 74 90 75 21 3 12 33 77 174 149 208 224 380 380 365 396 485 539 545 625 865 1239 1071 925 810 792 669 891 763 876 1384 915 790 1988
0 0 0 0 0 0 0 53 114 174 106 41 37 47 23 10 24 55 160 159 176 155 334 458 417 386 458 474 532 537 826 1174 1224 1048 1244 1200 935 1101 612 812 1082 805 691 1175
0 0 0 0 0 0 12 21 101 274 128 72 80 55 26 15 1 48 74 101 163 223 284 374 458 406 405 490 442 544 863 1013 1296 1387 824 834 526 279 256 606 890 1072 1280 1319
0 0 0 0 0 0 78 98 161 292 145 102 177 50 122 35 3 34 46 48 171 170 264 292 423 436 378 461 441 524 840 917 722 980 1118 448 418 353 561 630 1325 1012 1474 1665
0 0 0 0 0 0 177 98 80 91 116 59 148 79 55 84 36 34 36 58 118 156 200 241 291 429 435 440 506 496 747 894 856 961 733 656 579 583 454 670 744 690 766 822
0 0 0 0 0 0 154 131 81 59 92 58 157 97 120 134 62 31 59 108 105 199 198 242 316 406 480 441 506 455 651 847 775 721 686 511 555 559 716 569 330 588 562 585
0 0 0 0 0 72 186 133 91 60 68 48 168 87 134 151 88 77 118 130 131 197 208 247 293 501 382 506 531 462 595 689 572 626 796 956 788 390 309 847 553 443 492 564
0 0 0 0 0 7 129 150 160 78 26 5 80 33 238 286 201 174 80 83 37 135 245 251 290 407 471 500 582 552 556 741 539 521 758 867 518 426 438 664 1129 588 787 620
0 4 0 0 2 41 203 197 163 106 83 80 43 10 147 301 389 384 246 179 193 103 127 204 306 341 416 545 641 722 686 892 694 505 576 564 586 771 864 892 704 730 904 1199
0 0 14 0 6 46 82 197 146 65 127 85 96 179 225 365 450 638 429 223 180 35 51 224 329 369 449 590 606 785 830 856 886 813 647 676 765 901 954 820 928 987 1090 1199
11 28 92 273 240 239 306 214 253 190 137 50 2 29 62 273 344 484 572 227 52 1 71 267 246 304 476 563 710 830 878 791 773 811 833 831 970 1017 805 849 941 752 769 964
37 69 96 125 255 353 396 322 237 161 4 33 0 36 0 122 316 425 562 593 481 358 275 367 225 302 194 143 415 616 758 890 753 824 870 860 929 989 961 730 913 743 740 980
59 204 143 3 218 339 380 392 338 157 25 6 0 136 119 89 414 424 597 974 687 340 315 368 576 572 156 89 91 572 841 882 1046 915 897 914 989 1083 1080 1003 1138 1225 1078 1075
259 451 532 591 631 639 722 489 496 275 33 16 0 89 680 598 390 377 374 793 795 802 368 337 496 626 688 411 480 348 562 1016 840 951 1035 1151 1163 906 1072 1030 1104 1427 1309 1273
75 338 606 474 442 373 607 259 623 605 326 341 402 763 743 475 439 464 478 410 531 781 771 333 384 378 331 619 887 264 199 253 942 369 1388 1139 696 599 492 305 746 1081 1210 1251
57 148 133 203 250 298 39 107 397 917 1082 778 602 816 713 635 438 268 266 304 295 336 431 519 532 375 341 357 268 282 567 389 701 760 416 225 276 375 247 175 231 579 925 886
0 32 36 62 115 148 343 22 19 704 951 926 1052 882 848 587 296 216 174 246 206 210 277 264 205 183 222 381 534 492 447 473 705 900 926 696 673 452 84 63 34 99 772 945
96 36 8 17 57 86 215 250 417 528 872 1032 993 953 749 577 631 294 157 166 157 163 156 151 124 184 125 130 166 238 300 523 351 271 295 280 320 255 119 56 9 19 39 61
31 87 39 8 12 57 279 173 248 168 490 1018 1029 1091 914 936 645 711 199 144 111 90 59 85 123 98 116 218 242 133 48 9 20 19 20 27 20 13 5 1 0 0 0 0
50 18 7 5 9 17 125 53 178 278 348 1072 1219 1041 853 739 921 536 179 106 30 33 30 20 16 12 33 73 77 41 3 2 2 1 1 1 4 11 0 0 2 1 0 0
6 8 3 0 0 0 128 45 354 268 607 1356 1444 1316 910 700 558 365 190 98 77 26 1 12 18 2 3 3 0 1 0 2 2 3 2 2 2 3 3 3 2 5 5 5
0 0 0 0 39 132 215 447 241 548 602 1207 1238 938 822 584 554 273 166 200 71 7 2 3 11 4 4 5 2 1 1 0 0 0 0 1 1 3 3 2 2 3 0 1
0 0 0 0 0 79 190 154 252 407 740 1070 1333 1096 786 680 403 312 289 179 66 37 20 20 46 22 4 4 4 2 0 0 0 0 0 1 2 2 0 0 2 3 5 6
2 0 0 0 0 40 69 108 158 250 231 643 1248 1035 843 686 443 335 271 147 79 63 48 45 3 3 4 4 1 0 0 0 0 0 0 0 0 0 0 0 0 0 0 0
0 0 0 0 0 0 0 0 17 67 167 570 1057 1027 896 573 304 271 232 131 96 41 14 1 0 0 2 1 0 0 0 0 0 0 0 0 0 0 0 0 0 0 0 0
CIN
0 0 0 0 0 0 -1 -1 -5 -46 -60 -47 -36 0 0 -17 -37 -18 -2 -1 -1 -3 -2 -2 -2 -1 -2 -4 -4 -15 -1 -1 -1 -1 -1 -1 -1 -1 -4 -3 -40 -20 -24 -9
0 0 -5 0 0 0 -2 -2 -40 -42 -63 -29 -9 -16 -60 -22 -47 -22 -1 -1 -2 -3 -1 -1 -1 -1 -3 -3 -3 -2 -1 -1 -2 -1 -1 -1 -3 -4 -1 -1 -3 -17 -27 -6
0 0 0 0 0 0 0 -3 -12 -10 -40 -45 -23 -6 -2 -45 -52 -48 -5 -1 -2 -6 -2 -2 -1 -3 -2 -4 -8 -5 -1 -1 -1 -2 -1 -5 -7 -3 -2 -2 -1 -11 -23 -11
0 0 0 0 0 0 -3 -17 -8 -19 -17 -1 -29 -2 -43 -76 -46 -57 -43 -19 -1 -2 -2 -2 -6 -1 -3 -2 -7 -1 -1 -3 -1 -2 -1 -1 -3 -2 -3 -2 -1 -1 -2 -4
0 0 0 0 0 0 -1 -14 -11 -7 -5 -5 -5 -6 -30 -37 -14 -8 -37 -28 -3 -3 -2 -1 -2 -1 -2 -2 -3 -7 -1 -1 -1 -3 -3 -6 -8 -4 -1 -2 0 -1 -3 -1
0 0 0 0 0 0 -3 -6 -5 -1 -2 -2 -3 -10 -16 -50 -35 -65 -45 -70 -34 -4 -3 -3 -2 -7 -1 -3 -1 -2 -9 -6 -4 -6 -4 -7 -2 -2 -1 -2 -2 -2 -2 -1
0 0 0 0 0 0 -12 -3 -4 -2 -3 -2 -2 -17 -5 -35 -45 -23 -42 -63 -64 -4 -5 -2 -2 -2 -3 -2 -3 -3 -6 -9 -17 -11 -1 -7 -1 -1 -2 -4 -6 -2 -2 -1
0 0 0 0 0 -9 -12 -5 -6 -6 -3 -3 -18 -2 -7 -65 -55 -19 -22 -48 -39 -38 -3 -2 -2 -17 -45 -3 -6 -4 -11 -13 -25 -22 -10 -1 -3 -1 -4 -1 -2 -2 -2 -2
0 0 0 0 0 -7 -3 -3 -3 -15 -5 -5 -5 -15 -47 -20 -42 -41 -52 -43 -76 -33 -3 -2 -3 -6 -34 -8 -14 -10 -13 -15 -19 -19 -12 -7 -9 -14 -2 -2 0 -1 -2 -1
0 -2 0 0 -15 -39 -14 -6 -2 -4 -4 -3 -5 0 -14 -49 -56 -33 -4 -20 -19 -100 -75 -5 -8 -4 -3 -3 -8 -15 -16 -13 -18 -17 -10 -6 -5 -1 -1 -2 -8 -1 -1 -3
0 0 -13 0 -44 -7 -23 -7 -13 -25 -5 -5 -2 -3 -53 -67 -64 -22 -40 -7 -37 -54 -70 -22 -23 -29 -3 -9 -4 -7 -15 -12 -5 -4 -4 -5 -1 0 -1 -1 0 -3 -2 -2
-17 -4 -8 -7 -23 -39 -7 -7 -4 -3 -9 -7 -1 -32 -59 -79 -87 -47 -24 -21 -41 -15 -50 -24 -68 -31 -53 -57 -41 -24 -21 -16 -14 -3 -4 -3 -1 -1 -2 -1 -1 -1 -4 -2
-21 -6 -4 -6 -20 -40 -11 -9 -8 -7 -4 -8 0 -10 0 -73 -111 -85 -45 -13 -16 -7 -55 -42 -87 -54 -120 -99 -62 -64 -50 -18 -14 -6 -14 -12 -2 -1 -2 -6 -3 -12 -6 -3
-83 -6 -7 -1 -10 -3 -31 -22 -5 -4 -12 -14 0 -9 -71 -68 -115 -126 -85 -44 -49 -106 -86 -45 -32 -42 -128 -95 -102 -32 -41 -42 -26 -10 -19 -8 -11 -3 -1 -1 0 0 -3 -6
-8 -9 -3 -2 -3 -8 -15 -4 -10 -10 -16 -9 0 -14 -23 -72 -128 -143 -133 -58 -48 -38 -111 -97 -57 -52 -59 -64 -45 -52 -52 -27 -36 -9 -11 -14 -22 -11 -4 -1 0 -1 0 -1
-21 -3 -3 -18 -8 -42 -6 -39 -21 -6 -28 -28 -33 -48 -94 -161 -154 -151 -136 -138 -97 -60 -37 -83 -100 -68 -57 -38 -21 -75 -71 -71 -14 -54 0 -28 -25 -15 -17 -32 -4 -1 -1 -1
-17 -3 -5 -10 -9 -14 -84 -30 -9 -9 -15 -11 -14 -69 -134 -96 -160 -227 -223 -203 -217 -186 -147 -89 -84 -83 -77 -10 -43 -59 -26 -58 -4 -1 -59 -102 -86 -44 -36 -47 -23 0 -1 0
-9 -4 -6 -6 -4 -3 -8 -77 -67 -2 -23 -54 -90 -101 -88 -153 -238 -267 -310 -253 -265 -281 -223 -200 -202 -215 -157 -64 -9 -3 -9 -21 -6 -2 -3 -24 -30 -47 -108 -79 -65 -35 -1 -1
-12 -7 -4 -8 -5 -5 -8 -36 -10 -1 -6 -23 -52 -80 -115 -154 -116 -183 -266 -290 -273 -277 -251 -248 -257 -191 -223 -174 -139 -100 -54 -6 -41 -35 -25 -23 -15 -15 -43 -54 -39 -40 -25 -27
-16 -24 -7 -6 -26 -5 -4 -47 -52 -33 -2 -11 -17 -49 -73 -69 -33 -65 -219 -266 -283 -308 -324 -270 -221 -229 -216 -122 -82 -122 -215 -222 -191 -161 -96 -110 -127 -81 -73 -49 0 0 0 0
-11 -3 -4 -7 -5 -7 -36 -71 -64 -11 -4 -24 -13 -29 -28 -20 -43 -135 -241 -282 -373 -358 -353 -358 -367 -240 -333 -231 -217 -264 0 0 0 0 0 0 -94 -83 0 0 -36 0 0 0
-3 -4 -2 0 0 0 -44 -64 -17 -72 -61 -18 -4 -3 -11 -68 -109 -146 -190 -232 -259 -317 -209 -350 -327 0 0 0 0 0 0 0 0 0 0 0 0 0 0 0 0 0 0 0
0 0 0 0 -14 -82 -73 -50 -92 -60 -40 -22 -17 -36 -40 -61 -81 -150 -171 -149 -225 -314 0 0 -303 0 0 0 0 0 0 0 0 0 0 0 0 0 0 0 0 0 0 0
0 0 0 0 0 -93 -66 -107 -98 -78 -41 -27 -13 -25 -41 -36 -76 -81 -77 -117 -166 -223 -285 -271 -205 -269 0 0 0 0 0 0 0 0 0 0 0 0 0 0 0 0 0 0
-12 0 0 0 0 -75 -140 -132 -119 -98 -91 -35 -15 -19 -21 -32 -56 -65 -72 -111 -153 -177 -198 -203 -39 0 0 0 0 0 0 0 0 0 0 0 0 0 0 0 0 0 0 0
0 0 0 0 0 0 0 0 -106 -156 -89 -19 -10 -20 -25 -32 -55 -84 -113 -172 -189 -229 -257 -42 0 0 0 0 0 0 -1 0 0 0 0 0 0 0 0 0 0 0 0 0
Wind_Speed
10 14 17 17 18 15 15 15 16 14 14 19 18 23 21 12 18 34 29 24 27 28 27 29 29 23 26 29 29 28 27 25 25 25 24 22 18 16 16 16 17 16 16 15
10 18 18 16 17 19 18 18 17 17 17 19 17 20 16 24 17 19 33 32 29 31 28 30 30 25 28 29 30 30 28 26 27 25 24 21 20 20 18 16 18 17 17 16
11 15 14 17 18 19 20 22 19 22 16 18 19 19 14 10 25 22 35 34 22 32 29 30 30 30 28 27 25 30 29 27 28 27 23 20 19 19 21 20 19 15 18 18
10 13 11 18 20 20 20 18 20 18 19 24 19 22 20 18 20 21 20 39 37 32 32 27 31 30 31 30 22 19 31 29 27 29 28 26 26 24 21 16 14 15 18 19
8 7 11 18 21 19 22 18 18 19 24 23 21 23 20 16 18 15 20 40 38 36 36 33 32 33 28 32 30 22 24 30 29 29 28 27 27 24 25 21 16 19 16 19
11 11 12 15 16 17 15 19 21 22 24 27 17 20 19 13 22 29 36 40 41 40 37 36 21 18 20 26 31 31 23 29 29 30 29 28 27 25 25 25 22 22 18 19
4 1 5 13 12 8 13 21 25 25 24 28 16 19 19 22 22 25 17 42 40 41 39 37 33 23 7 9 31 24 31 30 30 30 29 29 28 27 27 24 27 21 19 20
8 6 7 3 11 12 16 28 29 28 28 23 17 21 16 18 17 14 36 36 32 38 39 35 33 12 15 4 19 30 14 30 27 29 29 29 27 27 27 26 23 24 22 21
11 12 7 4 1 12 12 27 25 27 24 26 18 16 14 14 14 11 16 21 27 39 34 32 27 18 10 9 5 21 22 27 29 27 29 29 28 28 28 25 25 25 23 22
14 14 9 7 5 15 24 23 23 25 24 28 18 19 17 16 16 14 4 15 25 32 37 33 32 28 19 19 11 12 10 15 22 28 27 29 29 29 29 28 28 26 24 23
16 16 9 4 6 16 16 24 27 20 24 23 23 18 15 16 17 17 17 6 6 30 38 33 28 25 24 25 21 16 19 6 8 13 9 29 30 29 29 29 29 27 27 27
11 17 12 5 13 23 26 27 26 25 20 18 18 17 16 17 15 15 14 4 2 9 34 36 25 24 24 20 26 18 16 14 15 12 13 16 20 27 29 31 29 28 28 27
12 16 8 5 9 14 26 25 27 26 22 15 17 15 15 16 14 12 12 13 16 15 19 22 24 26 23 26 25 23 21 16 14 13 11 11 13 17 21 27 28 28 27 26
16 22 27 18 16 7 20 25 29 30 27 18 17 17 17 15 15 13 13 14 15 19 23 24 23 23 26 25 37 28 25 24 19 16 16 14 12 12 15 18 22 24 24 24
17 19 19 14 12 14 19 19 23 31 32 26 21 22 17 17 15 16 16 14 13 14 16 24 24 22 21 20 21 21 22 23 25 24 22 16 19 19 18 20 20 20 20 23
22 18 15 16 15 17 15 19 24 20 22 23 20 18 15 13 13 13 12 10 9 10 10 7 15 14 11 18 27 29 27 27 25 31 29 26 27 18 20 22 23 23 23 20
22 24 27 20 16 17 23 25 20 17 20 15 20 12 5 10 10 12 12 10 10 10 10 10 10 11 12 16 16 21 22 26 27 26 24 21 20 19 20 19 22 25 22 21
18 17 24 27 21 26 18 12 24 18 16 14 8 6 7 7 8 10 12 11 11 11 12 13 13 13 13 11 9 6 5 1 2 23 25 23 21 19 21 21 21 22 23 21
17 18 15 23 29 21 15 12 12 21 16 12 7 6 7 6 7 10 11 11 11 11 12 13 14 14 14 13 12 12 12 11 10 10 15 17 21 20 21 21 22 24 21 22
13 19 21 18 19 20 12 9 15 18 16 11 10 6 6 7 14 11 10 11 11 12 13 13 14 14 13 14 13 13 13 14 15 15 14 14 15 16 17 17 18 16 16 20
19 19 23 17 20 16 14 12 11 18 16 11 12 8 8 13 14 7 9 11 12 13 14 14 14 14 14 14 13 13 14 15 15 14 12 12 13 14 14 15 15 18 16 15
23 21 19 17 20 19 9 10 14 12 12 10 10 11 12 11 8 8 9 10 11 12 13 14 13 13 14 14 14 14 15 15 15 14 12 12 13 14 14 13 13 14 12 15
21 20 19 19 16 13 11 13 12 13 12 12 11 12 11 9 9 9 10 11 12 12 12 13 12 13 14 14 15 14 14 14 13 13 13 13 14 14 14 13 14 15 14 13
21 19 21 18 8 11 12 15 16 14 13 11 9 7 6 6 5 8 11 12 12 11 12 12 12 13 14 14 14 13 13 13 13 13 13 13 14 14 15 16 15 15 14 13
19 15 23 23 8 11 9 6 8 8 11 10 8 7 7 6 6 7 10 12 13 13 12 12 12 12 13 13 13 13 12 12 12 12 13 13 14 15 15 16 16 15 16 18
12 24 20 22 7 13 10 8 6 7 7 8 7 7 7 7 7 10 12 13 13 12 12 12 12 12 12 12 12 12 12 12 12 13 13 14 14 15 14 14 15 16 16 17
Wind_Direction
274 271 267 273 279 292 294 298 305 312 322 295 304 261 266 282 260 198 172 156 157 161 154 175 160 136 204 186 175 185 199 205 201 194 199 206 211 215 212 220 215 214 216 223
287 269 267 276 277 280 284 288 299 305 306 302 307 276 295 253 252 244 188 176 165 175 158 174 179 148 164 188 182 181 189 205 203 202 203 214 212 207 215 222 215 219 220 230
294 283 281 271 273 276 278 279 291 290 302 304 298 293 306 297 253 247 219 212 176 175 163 169 171 172 161 158 157 177 182 202 198 204 215 222 224 220 207 210 220 244 228 233
311 306 280 269 268 271 276 283 287 293 294 282 291 286 294 294 266 235 236 208 201 173 177 162 172 169 172 174 142 147 188 198 205 195 195 198 187 192 211 238 252 250 239 235
346 305 291 271 268 272 277 284 285 286 285 289 289 284 287 306 267 225 231 192 194 183 194 181 181 188 164 183 177 143 154 186 202 205 210 207 202 219 203 225 256 238 260 245
335 315 295 290 285 276 281 277 278 282 281 272 297 286 286 304 252 232 185 191 198 198 186 188 224 242 148 162 186 194 151 175 185 198 208 216 211 224 216 220 237 231 260 240
25 330 321 293 294 283 271 263 264 268 266 265 296 294 293 247 234 216 236 192 189 197 192 195 183 234 238 146 176 157 200 181 186 194 197 197 215 217 215 237 219 248 259 253
356 344 160 309 273 281 262 256 260 262 261 271 290 278 292 309 306 147 200 227 193 218 211 218 221 236 245 203 154 175 146 181 170 179 185 199 222 223 220 229 240 241 254 259
343 324 348 127 269 273 274 260 273 266 271 268 279 290 317 320 344 355 136 150 165 208 222 227 236 242 235 243 221 156 157 172 182 177 190 202 217 217 214 237 236 240 260 261
332 326 333 113 323 284 263 265 261 260 262 257 274 274 283 304 311 304 12 156 172 230 226 234 233 237 243 245 250 252 151 152 165 181 182 197 213 206 215 228 218 236 255 266
311 307 332 16 142 275 273 258 256 270 267 264 263 272 298 302 280 272 257 286 203 236 226 234 239 241 243 241 246 253 253 261 270 267 195 228 225 230 235 233 232 248 253 250
326 293 305 6 293 260 251 252 247 254 265 273 273 282 293 308 287 280 259 277 345 257 231 235 245 246 244 246 243 255 258 263 266 273 274 275 271 254 245 234 241 253 255 256
315 286 309 325 314 287 248 253 241 245 210 267 270 279 283 291 294 296 273 264 260 259 256 244 244 246 250 247 252 254 256 264 269 271 277 282 284 282 276 260 259 260 267 271
286 263 239 281 286 308 257 249 232 243 254 254 263 258 251 265 263 274 274 272 273 262 248 247 248 246 253 255 237 253 258 258 266 271 274 279 285 290 291 289 281 278 279 280
291 276 267 292 309 288 263 263 262 243 240 248 245 250 257 255 252 255 264 278 281 281 273 242 242 250 255 255 255 259 263 263 267 271 273 278 280 284 287 288 290 292 291 287
273 286 289 284 294 276 281 273 263 273 263 260 260 257 278 280 267 260 267 289 288 283 281 315 155 272 284 273 257 254 263 266 271 262 267 272 278 283 285 288 289 287 289 294
275 259 243 272 275 278 262 260 267 282 272 276 258 286 347 299 302 288 287 311 329 318 313 307 307 298 299 280 278 260 275 260 260 271 276 284 288 289 286 300 294 289 292 293
285 284 264 253 264 258 283 298 266 286 288 291 325 355 338 329 328 330 316 328 322 331 339 341 334 329 326 345 6 18 22 11 209 279 278 282 287 289 289 295 293 296 297 294
283 275 299 257 250 276 299 303 304 272 285 306 328 327 328 343 348 332 321 329 329 328 321 326 336 346 349 342 333 327 327 330 337 326 305 297 288 293 296 298 296 295 298 297
294 262 261 271 269 265 304 331 297 289 280 292 298 331 336 319 303 316 321 327 326 327 325 324 325 339 350 350 359 352 344 325 317 319 318 317 314 312 310 310 304 316 314 296
253 269 256 280 273 298 310 320 317 276 283 288 292 310 315 302 303 339 319 315 319 324 328 328 329 325 326 336 347 351 353 346 340 340 337 331 333 341 334 336 334 312 310 311
259 266 275 289 276 286 334 325 299 316 317 312 309 301 307 317 331 323 317 317 321 322 325 327 331 332 333 334 342 342 344 338 343 349 350 349 349 341 345 346 348 353 3 321
249 264 279 275 300 315 318 305 315 314 322 316 313 312 315 321 319 318 313 313 313 319 324 326 333 337 336 338 340 336 341 340 339 340 341 342 342 346 348 351 346 328 343 0
259 272 255 275 335 317 300 277 270 297 319 340 347 12 28 22 0 318 307 304 309 316 318 323 327 330 333 340 341 342 339 338 339 337 332 336 340 339 336 334 331 332 345 355
241 139 206 212 254 309 111 58 22 28 356 3 35 38 14 2 342 328 310 302 301 305 312 318 322 325 329 335 338 342 340 342 343 343 341 339 335 333 336 334 329 333 329 313
180 217 186 244 348 145 350 113 70 57 41 14 25 44 57 22 342 313 303 301 299 303 309 313 315 319 325 334 337 347 345 346 352 345 340 341 341 338 338 337 332 336 336 331